Tracking 31027 objects as of 19-Jul-2025
HD Live streaming from Space Station
objects crossing your sky now

STARLINK-3260

Track STARLINK-3260 now!
10-day predictions
STARLINK-3260 is classified as:


NORAD ID: 50205
Int'l Code: 2021-125BB
Perigee: 546.1 km
Apogee: 547.7 km
Inclination: 53.2 °
Period: 95.4 minutes
Semi major axis: 6917 km
RCS: Unknown
Launch date: December 18, 2021
Source: United States (US)
Launch site: AIR FORCE WESTERN TEST RANGE (AFWTR)
Your satellite tracking list
KORSAT 7
Track 1 satellite(s)




NASA's NSSDC Master Catalog

Two Line Element Set (TLE):
1 50205U 21125BB  25199.18071102 -.00000986  00000-0 -43886-4 0  9997
2 50205  53.2161 181.8720 0001163  80.2092 279.9032 15.08835152201756
Source of the keplerian elements: AFSPC